﻿METLOCID,DATE_TIME,AVG_RH2M,STDDEV_RH2M,MIN_RH2M,MAX_RH2M,N_RH2M,AVG_RH1M,STDDEV_RH1M,MIN_RH1M,MAX_RH1M,N_RH1M,AVG_RH3M,STDDEV_RH3M,MIN_RH3M,MAX_RH3M,N_RH3M,N_COMMENTS
CAAM,12/1/94,62.91237363,20.56783275,23.77,99.99,1820,,,,,0,,,,,0,374
CAAM,1/1/95,67.94451178,18.61155131,19.8,99.99,1485,,,,,0,,,,,0,34
CAAM,11/1/95,50.09944444,20.04965222,22.1,99.99,990,53.71961616,20.23885714,23.5,99.18,990,,,,,0,3
CAAM,12/1/95,63.4516605,17.22434207,24.9,99.99,2975,67.15049076,15.85208181,28.1,99.9,2975,,,,,0,8
CAAM,1/1/96,67.77875565,18.68138119,24.9,99.99,2877,70.9248349,17.37220349,31.3,99.99,2877,,,,,0,51
CAAM,2/1/96,60.00142241,12.73137121,30.9,99.99,2784,63.1321444,12.02952132,33.86,99.99,2784,,,,,0,2
CAAM,3/1/96,75.13789987,22.06470376,21.79,99.99,2976,76.69942876,20.93803155,22.73,99.99,2976,,,,,0,4
CAAM,4/1/96,70.34949653,23.53021725,28.85,99.99,2880,72.33431597,22.19774621,30.74,99.99,2880,,,,,0,116
CAAM,5/1/96,67.76126344,18.48465946,33.34,98.5,2976,69.80013105,17.35284259,35.78,98.81,2976,,,,,0,0
CAAM,6/1/96,66.57894097,20.35014979,27.73,96.18,2880,68.40310764,19.64823347,28.23,96.5,2880,,,,,0,0
CAAM,7/1/96,52.32783266,16.5195166,27.9,91.15,2976,54.49266465,16.34901307,28.36,90.66,2976,,,,,0,0
CAAM,8/1/96,61.689158,20.40952257,28.52,96.92,1924,63.79101351,19.87907505,29.09,97.27,1924,,,,,0,0
CAAM,11/1/96,53.88305,8.149069941,31.57,68.4,200,56.50075,7.96058929,34.27,70.86,200,,,,,0,0
CAAM,12/1/96,59.59173387,17.75923951,25.59,99.99,2976,62.07611895,16.72588197,29.54,99.99,2976,,,,,0,81
CAAM,1/1/97,73.94877537,20.53462379,30.3,99.99,1478,75.68554804,19.05036623,34,99.99,1478,,,,,0,329
CAAM,1/1/98,72.16421989,20.32785564,27.08,99.99,2474,,,,,0,,,,,0,345
CAAM,2/1/98,72.44468905,21.63469599,29.69,99.99,2621,,,,,0,,,,,0,436
CAAM,3/1/98,66.16829637,20.60541465,33.02,99.99,2976,,,,,0,,,,,0,54
CAAM,4/1/98,64.05498958,19.4678915,28.04,99.99,2880,,,,,0,,,,,0,31
CAAM,5/1/98,66.14039315,22.51855775,27.83,99.99,2976,,,,,0,,,,,0,35
CAAM,6/1/98,60.74920833,24.39700575,25.46,99.99,2880,,,,,0,,,,,0,268
CAAM,7/1/98,61.52490591,22.3641114,26.94,99.99,2976,,,,,0,,,,,0,2
CAAM,8/1/98,57.4528797,17.27596305,27.72,93.13,2976,,,,,0,,,,,0,0
CAAM,9/1/98,65.82028472,15.25397534,29.15,92.64,2880,,,,,0,,,,,0,0
CAAM,10/1/98,59.66836694,22.64353026,23.4,99.99,2976,,,,,0,,,,,0,93
CAAM,11/1/98,56.60040278,16.53686162,27.57,99.99,2880,,,,,0,,,,,0,26
CAAM,12/1/98,61.01135753,20.789216,20.21,100,2976,,,,,0,,,,,0,0
CAAM,1/1/99,67.45131384,21.08226561,23.38,100,2976,,,,,0,,,,,0,0
CAAM,2/1/99,68.31398065,20.28107259,24.55,100,2688,,,,,0,,,,,0,0
CAAM,3/1/99,57.32443884,16.47421038,29.17,100,2976,,,,,0,,,,,0,0
CAAM,4/1/99,61.79389931,15.15027641,31.16,95.2,2880,,,,,0,,,,,0,0
CAAM,5/1/99,53.99059812,16.37271703,29.88,100,2976,,,,,0,,,,,0,0
CAAM,6/1/99,67.54648264,26.14004499,28.44,100,2880,,,,,0,,,,,0,0
CAAM,7/1/99,57.46610215,22.19629177,27.94,100,2976,,,,,0,,,,,0,0
CAAM,8/1/99,56.77546035,19.20141599,31.1,95.86,2976,,,,,0,,,,,0,0
CAAM,9/1/99,64.89225694,24.14613121,25.55,100,2880,,,,,0,,,,,0,0
CAAM,10/1/99,52.96144153,22.23841191,23.47,100,2976,,,,,0,,,,,0,0
CAAM,11/1/99,61.7361875,21.92914508,23.64,100,2880,,,,,0,,,,,0,0
CAAM,12/1/99,58.03893481,18.54205034,20.6,100,2976,,,,,0,,,,,0,0
CAAM,1/1/00,61.57868952,20.80219886,21.62,100,2976,,,,,0,,,,,0,0
CAAM,2/1/00,61.03837644,23.88530069,24.67,100,2784,,,,,0,,,,,0,0
CAAM,3/1/00,66.52931788,27.72229916,26.88,100,2976,,,,,0,,,,,0,0
CAAM,4/1/00,63.75557292,23.04502557,25.87,100,2880,,,,,0,,,,,0,0
CAAM,5/1/00,67.69381195,24.69718692,28.92,100,2946,,,,,0,,,,,0,0
CAAM,6/1/00,59.49356597,20.09737539,24.82,99.12,2880,,,,,0,,,,,0,0
CAAM,7/1/00,53.76953512,22.88124856,8.52,99.21,2947,,,,,0,,,,,0,0
CAAM,8/1/00,52.70431452,20.03902484,25.86,100,2976,,,,,0,,,,,0,0
CAAM,9/1/00,53.48971875,19.4664971,26.27,100,2880,,,,,0,,,,,0,0
CAAM,10/1/00,62.77645161,19.7284842,30.7,100,2976,,,,,0,,,,,0,0
CAAM,11/1/00,59.58993051,26.4721731,21.76,100,2878,,,,,0,,,,,0,0
CAAM,12/1/00,71.18941196,16.31015693,28.76,100,2976,,,,,0,,,,,0,0
CAAM,1/1/01,74.57365927,16.88590395,26.11,100,2976,,,,,0,,,,,0,0
CAAM,2/1/01,65.48225235,20.68182715,15.87,100,2655,,,,,0,,,,,0,0
CAAM,3/1/01,69.66845766,22.41984563,12.95,100,2976,,,,,0,,,,,0,0
CAAM,4/1/01,74.13177431,25.08233767,18.62,100,2880,,,,,0,,,,,0,0
CAAM,5/1/01,64.67393145,24.61000451,14.64,100,2976,,,,,0,,,,,0,0
CAAM,6/1/01,66.12633521,23.2612497,24.85,100,2846,,,,,0,,,,,0,0
CAAM,7/1/01,59.18301075,22.83441949,21.65,100,2976,,,,,0,,,,,0,0
CAAM,8/1/01,73.1187332,23.68856743,24.17,100,2976,,,,,0,,,,,0,0
CAAM,9/1/01,63.63442361,24.16912117,12.59,100,2880,,,,,0,,,,,0,0
CAAM,10/1/01,54.76125672,18.95559876,22.46,100,2976,,,,,0,,,,,0,0
CAAM,11/1/01,58.66017014,15.7914259,21.52,100,2880,,,,,0,,,,,0,0
CAAM,12/1/01,58.20921822,15.87491116,15.81,100,2942,,,,,0,,,,,0,0
CAAM,1/1/02,69.25906922,24.07892918,17.58,100,2976,,,,,0,,,,,0,0
CAAM,2/1/02,64.95354167,18.8002762,25.36,100,2688,,,,,0,,,,,0,0
CAAM,3/1/02,66.11781586,24.82497698,22.2,100,2976,,,,,0,,,,,0,0
CAAM,4/1/02,64.190875,25.21369247,23.01,100,2880,,,,,0,,,,,0,0
CAAM,5/1/02,62.84939852,23.77517151,21.31,100,2976,,,,,0,,,,,0,0
CAAM,6/1/02,72.44330208,23.41078105,13.83,100,2880,,,,,0,,,,,0,0
CAAM,7/1/02,55.73012097,22.79958465,15.45,100,2976,,,,,0,,,,,0,0
CAAM,8/1/02,65.74384409,22.90285753,29.3,100,2976,,,,,0,,,,,0,0
CAAM,9/1/02,68.94380556,25.68259962,23.52,100,2880,,,,,0,,,,,0,0
CAAM,10/1/02,69.06635417,22.40182819,23.18,100,2976,,,,,0,,,,,0,0
CAAM,11/1/02,73.33997917,21.91572365,14.34,100,2880,,,,,0,,,,,0,0
CAAM,12/1/02,73.96407068,17.24154483,26.31,100,2943,,,,,0,,,,,0,0
CAAM,1/1/03,70.7245042,17.45657732,24.66,100,2975,,,,,0,,,,,0,0
CAAM,2/1/03,70.05436012,18.69729454,28.17,100,2688,,,,,0,,,,,0,0
CAAM,3/1/03,67.58442204,23.10544195,27.75,100,2976,,,,,0,,,,,0,0
CAAM,4/1/03,71.21420139,21.51693008,29.01,100,2880,,,,,0,,,,,0,0
CAAM,5/1/03,56.36232191,24.37223339,13.28,100,2976,,,,,0,,,,,0,0
CAAM,6/1/03,65.06928125,25.31494347,14.35,100,2880,,,,,0,,,,,0,0
CAAM,7/1/03,49.42757392,22.8852528,20.82,100,2976,,,,,0,,,,,0,0
CAAM,8/1/03,68.08913642,20.98435082,17.22,100,2976,,,,,0,,,,,0,0
CAAM,9/1/03,68.08434722,25.04899023,11.29,100,2880,,,,,0,,,,,0,0
CAAM,10/1/03,55.57512433,23.75411708,15.27,100,2976,,,,,0,,,,,0,0
CAAM,11/1/03,61.47828819,17.09736419,26.62,100,2880,,,,,0,,,,,0,0
CAAM,12/1/03,60.73506048,21.39076635,16.64,100,2976,,,,,0,,,,,0,0
CAAM,1/1/04,71.15956288,15.38503341,24.32,100,2974,,,,,0,,,,,0,0
CAAM,2/1/04,63.00934626,19.5530396,25.35,100,2784,,,,,0,,,,,0,0
CAAM,3/1/04,73.36135417,20.64292716,32.12,100,2976,,,,,0,,,,,0,0
CAAM,4/1/04,67.46531597,22.58447705,25.83,100,2880,,,,,0,,,,,0,0
CAAM,5/1/04,58.94975134,23.79549467,20.3,100,2976,,,,,0,,,,,0,0
CAAM,6/1/04,57.36269444,26.69956836,11.52,100,2880,,,,,0,,,,,0,0
CAAM,7/1/04,64.83449933,24.62375453,10.31,98.41,2976,,,,,0,,,,,0,0
CAAM,8/1/04,59.08793347,26.07695138,9.46,100,2976,,,,,0,,,,,0,0
CAAM,9/1/04,74.97158333,22.04881548,21.99,100,2880,,,,,0,,,,,0,0
CAAM,10/1/04,59.30014785,19.83784746,19.39,100,2976,,,,,0,,,,,0,0
CAAM,11/1/04,60.03583739,19.47958622,19.65,100,2878,,,,,0,,,,,0,0
CAAM,12/1/04,67.72644489,19.35133061,22.98,100,2976,,,,,0,,,,,0,0
CAAM,1/1/05,74.82771841,16.40893079,26.21,100,2976,,,,,0,,,,,0,0
CAAM,2/1/05,68.39445685,22.41309832,26.54,100,2688,,,,,0,,,,,0,0
CAAM,3/1/05,65.70716734,22.53468231,23.75,100,2976,,,,,0,,,,,0,0
CAAM,4/1/05,81.39455208,20.46340673,31.1,100,2880,,,,,0,,,,,0,0
CAAM,5/1/05,69.72376008,24.5660104,22.47,100,2976,,,,,0,,,,,0,0
CAAM,6/1/05,71.35064931,23.86435839,20.39,100,2880,,,,,0,,,,,0,0
CAAM,7/1/05,68.20287634,23.7978628,20.91,100,2976,,,,,0,,,,,0,0
CAAM,8/1/05,72.49574597,24.15584415,19.47,100,2976,,,,,0,,,,,0,0
CAAM,9/1/05,52.69557986,19.84921664,14.29,100,2880,,,,,0,,,,,0,0
CAAM,10/1/05,64.87515793,23.68835679,13.54,100,2976,,,,,0,,,,,0,0
CAAM,11/1/05,67.08432639,19.08055442,23.76,100,2880,,,,,0,,,,,0,0
CAAM,12/1/05,72.88508571,18.05828661,27.17,100,2975,,,,,0,,,,,0,0
CAAM,1/1/06,73.13909274,17.63464846,28.41,100,2976,,,,,0,,,,,0,0
CAAM,2/1/06,73.88113839,19.4419679,32.66,100,2688,,,,,0,,,,,0,0
CAAM,3/1/06,73.83710349,21.82438312,27.99,100,2976,,,,,0,,,,,0,0
CAAM,4/1/06,70.40635764,19.60158582,27.31,100,2880,,,,,0,,,,,0,0
CAAM,5/1/06,73.44790323,22.7195994,12.62,100,2976,,,,,0,,,,,0,0
CAAM,6/1/06,68.1666875,22.81197006,26.37,100,2880,,,,,0,,,,,0,0
CAAM,7/1/06,66.38487231,21.31031688,20.89,100,2976,,,,,0,,,,,0,0
CAAM,8/1/06,69.24636761,24.95510106,24.04,100,2976,,,,,0,,,,,0,0
CAAM,9/1/06,72.62423611,25.38656524,30.71,100,2880,,,,,0,,,,,0,0
CAAM,10/1/06,72.48221774,19.47279961,29.4,100,2976,,,,,0,,,,,0,0
CAAM,11/1/06,62.7720335,18.86981117,29.31,100,2149,,,,,0,,,,,0,0
CAAM,12/1/06,,,,,0,,,,,0,,,,,0,0
CAAM,1/1/07,76.70430913,12.21104959,37.04,100,427,,,,,0,,,,,0,0
CAAM,2/1/07,77.80668527,19.44271742,30.68,100,2688,,,,,0,,,,,0,0
CAAM,3/1/07,72.05913642,24.76985483,16.33,100,2976,,,,,0,,,,,0,0
CAAM,4/1/07,67.48216667,23.16574262,23.9,100,2880,,,,,0,,,,,0,0
CAAM,5/1/07,59.68833333,23.0731966,12.51,100,2976,,,,,0,,,,,0,0
CAAM,6/1/07,57.52057357,23.0146934,13.58,100,2406,,,,,0,,,,,0,0
CAAM,11/1/07,69.44173255,15.9732301,10.15,100,2049,,,,,0,,,,,0,0
CAAM,12/1/07,60.28097446,22.03855887,21.22,100,2976,,,,,0,,,,,0,0
CAAM,1/1/08,63.62942984,16.17440694,25.36,98.88,2473,,,,,0,,,,,0,0
CAAM,10/1/08,75.40158485,21.43390459,21.6,100,2587,,,,,0,,,,,0,0
CAAM,11/1/08,65.10208348,20.75476092,13.44,100,2875,,,,,0,,,,,0,0
CAAM,12/1/08,60.02040672,18.0680209,16.95,100,2975,,,,,0,,,,,0,0
CAAM,1/1/09,69.06021169,17.68406661,25.02,100,2976,,,,,0,,,,,0,0
CAAM,2/1/09,71.97133929,17.76403738,22.83,100,2688,,,,,0,,,,,0,0
CAAM,3/1/09,73.9996875,22.392857,23.05,100,2976,,,,,0,,,,,0,0
CAAM,4/1/09,63.95364931,23.06876043,24.11,100,2880,,,,,0,,,,,0,0
CAAM,5/1/09,61.8621539,22.65182791,19.07,100,2976,,,,,0,,,,,0,0
CAAM,6/1/09,58.04965278,24.41908746,16.3,100,2880,,,,,0,,,,,0,0
CAAM,7/1/09,66.10867944,26.53434674,20.59,100,2976,,,,,0,,,,,0,0
CAAM,8/1/09,68.35731519,24.55604828,26.5,100,2976,,,,,0,,,,,0,0
CAAM,9/1/09,49.77262847,23.17336394,9.55,100,2880,,,,,0,,,,,0,0
CAAM,10/1/09,65.85741935,20.49796733,25.61,100,2976,,,,,0,,,,,0,0
CAAM,11/1/09,57.74060417,19.0047434,18.39,100,2880,,,,,0,,,,,0,0
CAAM,12/1/09,70.27978495,17.37325438,26.09,100,2976,,,,,0,,,,,0,0
CAAM,1/1/10,74.00698589,14.85407303,28.78,100,2976,,,,,0,,,,,0,0
CAAM,2/1/10,72.57952753,20.50690034,20.03,100,2688,,,,,0,,,,,0,0
CAAM,3/1/10,74.43873992,19.50142545,32,100,2976,,,,,0,,,,,0,0
CAAM,4/1/10,66.25684722,24.57195232,18.84,100,2880,,,,,0,,,,,0,0
CAAM,5/1/10,65.65771841,22.92642997,25.96,100,2976,,,,,0,,,,,0,0
CAAM,6/1/10,59.19811806,21.3241766,23.61,100,2880,,,,,0,,,,,0,0
CAAM,7/1/10,57.04686156,22.49532799,20.48,100,2976,,,,,0,,,,,0,0
CAAM,8/1/10,69.19070901,27.45545847,12.81,100,2976,,,,,0,,,,,0,0
CAAM,9/1/10,69.37066319,24.16711664,19.65,100,2880,,,,,0,,,,,0,0
CAAM,10/1/10,64.11049059,23.67386991,13.78,100,2976,,,,,0,,,,,0,0
CAAM,11/1/10,50.40673958,18.36068271,14.91,100,2880,,,,,0,,,,,0,0
CAAM,12/1/10,61.25539656,19.18474242,13.77,100,2963,,,,,0,,,,,0,0
CAAM,1/1/11,79.52146927,18.15397176,27.26,100,2457,,,,,0,,,,,0,0
CAAM,2/1/11,,,,,0,,,,,0,,,,,0,0
CAAM,3/1/11,,,,,0,,,,,0,,,,,0,0
CAAM,4/1/11,,,,,0,,,,,0,,,,,0,0
CAAM,5/1/11,,,,,0,,,,,0,,,,,0,0
CAAM,6/1/11,,,,,0,,,,,0,,,,,0,0
CAAM,7/1/11,,,,,0,,,,,0,,,,,0,0
CAAM,8/1/11,,,,,0,,,,,0,,,,,0,0
CAAM,9/1/11,,,,,0,,,,,0,,,,,0,0
CAAM,10/1/11,,,,,0,,,,,0,,,,,0,0
CAAM,11/1/11,,,,,0,,,,,0,62.56842642,18.5475429,15.95,100,2256,0
CAAM,12/1/11,,,,,0,,,,,0,65.6503293,17.88643515,20.71,100,2976,0
CAAM,1/1/12,,,,,0,,,,,0,69.65406586,16.27983836,25.03,100,2976,0
CAAM,2/1/12,,,,,0,,,,,0,64.68083333,21.6658407,18.02,100,2784,0
CAAM,3/1/12,,,,,0,,,,,0,64.08720766,25.0801166,25.05,100,2976,0
CAAM,4/1/12,,,,,0,,,,,0,64.81951042,25.23303616,27.79,100,2880,0
CAAM,5/1/12,,,,,0,,,,,0,56.92041667,28.76524729,13.98,100,2976,0
CAAM,6/1/12,,,,,0,,,,,0,63.60240972,27.3094273,10.47,100,2880,0
CAAM,7/1/12,,,,,0,,,,,0,72.33323589,23.04287066,28.73,100,2976,0
CAAM,8/1/12,,,,,0,,,,,0,69.14092406,27.22163803,11.31,100,2976,0
CAAM,9/1/12,,,,,0,,,,,0,64.21685069,21.71851617,25.98,100,2880,0
CAAM,10/1/12,,,,,0,,,,,0,60.79210013,20.34603783,22.62,100,2976,0
CAAM,11/1/12,,,,,0,,,,,0,61.80162847,17.81484159,26.52,100,2880,0
CAAM,12/1/12,,,,,0,,,,,0,69.10942204,17.58976402,20.7,100,2976,0
CAAM,1/1/13,,,,,0,,,,,0,72.41520833,20.105007,18.23,100,2976,0
CAAM,2/1/13,,,,,0,,,,,0,68.79166295,20.2352919,27.7,100,2688,0
CAAM,3/1/13,,,,,0,,,,,0,73.02152218,21.48415589,31.68,100,2976,0
CAAM,4/1/13,,,,,0,,,,,0,65.81090278,21.54723695,22.46,100,2880,0
CAAM,5/1/13,,,,,0,,,,,0,67.89975806,24.49569189,22.15,100,2976,0
CAAM,6/1/13,,,,,0,,,,,0,68.97211458,23.63898194,23.73,100,2880,0
CAAM,7/1/13,,,,,0,,,,,0,73.69230511,23.35581303,24.96,100,2976,0
CAAM,8/1/13,,,,,0,,,,,0,60.18362903,21.76432667,13.22,100,2976,0
CAAM,9/1/13,,,,,0,,,,,0,63.27539931,26.79135728,11.66,100,2880,0
CAAM,10/1/13,,,,,0,,,,,0,74.14094886,22.4803751,28.99,100,2972,0
CAAM,11/1/13,,,,,0,,,,,0,59.44862153,21.01185557,21.88,100,2880,0
CAAM,12/1/13,,,,,0,,,,,0,65.09899194,19.50022523,19.9,100,2976,0
CAAM,1/1/14,,,,,0,,,,,0,65.22965726,19.50594706,23.66,100,2976,0
CAAM,2/1/14,,,,,0,,,,,0,66.22875372,20.77585832,14.99,100,2688,0
CAAM,3/1/14,,,,,0,,,,,0,67.06165995,25.81358287,21.99,100,2976,0
CAAM,4/1/14,,,,,0,,,,,0,70.91059722,27.16067877,13.15,100,2880,0
CAAM,5/1/14,,,,,0,,,,,0,71.8324832,25.13755757,23.19,100,2976,0
CAAM,6/1/14,,,,,0,,,,,0,68.73372569,25.23617031,21.27,100,2880,0
CAAM,7/1/14,,,,,0,,,,,0,65.95042339,20.69515974,22.71,100,2976,0
CAAM,8/1/14,,,,,0,,,,,0,65.32444556,26.83777783,22.11,100,2976,0
CAAM,9/1/14,,,,,0,,,,,0,60.63619792,26.66472796,12.76,100,2880,0
CAAM,10/1/14,,,,,0,,,,,0,64.72912634,25.49164348,27.01,100,2976,0
CAAM,11/1/14,,,,,0,,,,,0,70.42645296,17.20796056,27.24,100,2870,0
CAAM,12/1/14,,,,,0,,,,,0,71.06003696,14.69918707,28.52,100,2976,0
CAAM,1/1/15,,,,,0,,,,,0,66.91352823,19.80905825,16.83,100,2976,0
CAAM,2/1/15,,,,,0,,,,,0,62.84714286,22.26708182,22.16,100,2688,0
CAAM,3/1/15,,,,,0,,,,,0,67.28171035,20.01333798,26.83,100,2976,0
CAAM,4/1/15,,,,,0,,,,,0,78.0195,21.75466329,26.3,100,2880,0
CAAM,5/1/15,,,,,0,,,,,0,67.83676411,22.58402822,15.68,100,2976,0
CAAM,6/1/15,,,,,0,,,,,0,55.31819444,20.79350945,13.81,100,2880,0
CAAM,7/1/15,,,,,0,,,,,0,65.2372379,26.13099684,11.81,100,2976,0
CAAM,8/1/15,,,,,0,,,,,0,64.6235047,27.09467588,15.65,100,2976,0
CAAM,9/1/15,,,,,0,,,,,0,63.32189236,24.28465783,15.72,100,2880,0
CAAM,10/1/15,,,,,0,,,,,0,67.04005712,23.02231414,12.67,100,2976,0
CAAM,11/1/15,,,,,0,,,,,0,60.29827478,20.17650337,19.16,100,2875,0
CAAM,12/1/15,,,,,0,,,,,0,66.94413978,21.51785514,13,100,2976,0
CAAM,1/1/16,,,,,0,,,,,0,67.7752453,21.68098408,14.84,100,2976,0
CAAM,2/1/16,,,,,0,,,,,0,63.3009806,21.19271521,23.88,100,2784,0
CAAM,3/1/16,,,,,0,,,,,0,67.68585013,21.8544944,26.6,100,2976,0
CAAM,4/1/16,,,,,0,,,,,0,64.84075694,24.71128162,30.61,100,2880,0
CAAM,5/1/16,,,,,0,,,,,0,62.6328125,25.01412535,12.16,100,2976,0
CAAM,6/1/16,,,,,0,,,,,0,75.68596528,21.4161632,27.66,100,2880,0
CAAM,7/1/16,,,,,0,,,,,0,69.73150874,20.10786249,21.65,100,2976,0
CAAM,8/1/16,,,,,0,,,,,0,57.29352487,23.64704278,13.33,100,2976,0
CAAM,9/1/16,,,,,0,,,,,0,73.14279167,23.89187745,23.75,100,2880,0
CAAM,10/1/16,,,,,0,,,,,0,71.92785546,21.50715913,26.7,100,2975,0
CAAM,11/1/16,,,,,0,,,,,0,65.89069792,20.29456501,12.4,100,2880,0
CAAM,12/1/16,,,,,0,,,,,0,68.10195228,19.11455526,18.34,100,2976,0
CAAM,1/1/17,,,,,0,,,,,0,67.15533938,17.12525716,21.04,100,2976,0
CAAM,2/1/17,,,,,0,,,,,0,60.130625,18.28661741,23.25,100,2688,0
CAAM,3/1/17,,,,,0,,,,,0,77.24645833,24.21565907,22.42,100,2976,0
CAAM,4/1/17,,,,,0,,,,,0,48.61857292,17.88268087,21.85,100,2880,0
CAAM,5/1/17,,,,,0,,,,,0,59.63482191,23.81480025,18.34,100,2976,0
CAAM,6/1/17,,,,,0,,,,,0,62.6081875,26.30522943,19.51,100,2880,0
CAAM,7/1/17,,,,,0,,,,,0,56.97703629,25.1042365,16.03,100,2976,0
CAAM,8/1/17,,,,,0,,,,,0,55.27522513,24.62313238,11.39,100,2976,0
CAAM,9/1/17,,,,,0,,,,,0,58.61450347,25.13796827,16.28,100,2880,0
CAAM,10/1/17,,,,,0,,,,,0,70.83894825,24.7644775,15.46,100,2976,0
CAAM,11/1/17,,,,,0,,,,,0,68.94942361,21.33110018,14.32,100,2880,335
CAAM,12/1/17,,,,,0,,,,,0,70.38891582,17.26081098,22.7,100,2970,2970
CAAM,1/1/18,,,,,0,,,,,0,70.1418088,17.73645546,28.02,100,2908,2908
CAAM,2/1/18,,,,,0,,,,,0,65.6749628,21.24476909,20.51,100,2688,2688
CAAM,3/1/18,,,,,0,,,,,0,72.25377352,23.11011104,29.2,100,2976,2976
CAAM,4/1/18,,,,,0,,,,,0,58.2689375,25.85424663,11.63,100,2880,2880
CAAM,5/1/18,,,,,0,,,,,0,62.78412634,21.55076373,20.83,100,2976,2976
CAAM,6/1/18,,,,,0,,,,,0,62.70937153,25.16262481,23.78,100,2880,2880
CAAM,7/1/18,,,,,0,,,,,0,56.64023858,26.53355725,13.23,100,2976,2976
CAAM,8/1/18,,,,,0,,,,,0,61.01231519,23.89639609,11.88,100,2976,2976
CAAM,9/1/18,,,,,0,,,,,0,67.11390625,24.11030093,17.28,100,2880,2880
CAAM,10/1/18,,,,,0,,,,,0,62.37583669,24.64602514,20.32,100,2976,2976
CAAM,11/1/18,,,,,0,,,,,0,62.33424453,20.05650097,19.31,100,2879,2558
CAAM,12/1/18,,,,,0,,,,,0,62.00195901,20.94845318,20.46,100,2976,133
CAAM,1/1/19,,,,,0,,,,,0,74.70891465,16.34678403,21.08,100,2976,144
CAAM,2/1/19,,,,,0,,,,,0,67.79577753,22.29990408,23.1,100,2688,291
CAAM,3/1/19,,,,,0,,,,,0,73.8122043,23.20970739,24.93,100,2976,616
CAAM,4/1/19,,,,,0,,,,,0,58.90746181,23.05137168,22.2,100,2880,308
CAAM,5/1/19,,,,,0,,,,,0,64.19281922,25.25715213,29.53,100,2976,500
CAAM,6/1/19,,,,,0,,,,,0,61.71695833,26.48735557,15.76,100,2880,420
CAAM,7/1/19,,,,,0,,,,,0,72.34527218,28.67783763,12.35,100,2976,723
CAAM,8/1/19,,,,,0,,,,,0,60.73779906,24.82199968,16.27,100,2976,187
CAAM,9/1/19,,,,,0,,,,,0,55.70599653,22.32018747,21.22,100,2880,113
CAAM,10/1/19,,,,,0,,,,,0,61.62148185,21.16622041,24.19,100,2976,172
CAAM,11/1/19,,,,,0,,,,,0,67.51386111,19.59909098,25.44,100,2880,151
CAAM,12/1/19,,,,,0,,,,,0,71.56500379,20.07525399,22.52,100,2640,152